Location: Tom
(33.0437°N, 96.9452°W)
Time: 13:54:56
(UTC-05:00)

N. Korean satellite - Pass Details

Date: 25 December 2018
Orbit: 456 x 510 km, 97.2° (Epoch: 26 March)

Event Time Altitude Azimuth Distance (km) Brightness Sun altitude
Rises 06:30:32 0° 14° (NNE) 2,590 10.2 -12.0°
Reaches altitude 10° 06:32:37 10° 17° (NNE) 1,711 9.3 -11.6°
Maximum altitude 06:36:18 68° 100° (E) 545 7.0 -10.8°
Drops below altitude 10° 06:39:59 10° 184° (S) 1,719 9.6 -10.1°
Sets 06:42:05 0° 187° (S) 2,604 10.5 -9.7°
